Location: ???????
(55.3754°N, 39.3545°E)
Time: 07:49:11
(UTC+00:00)

Cosmos 1975 Rocket - Pass Details

Date: 14 April 2026
Orbit: 597 x 626 km, 82.5° (Epoch: 12 May)

Event Time Altitude Azimuth Distance (km) Brightness Sun altitude
Rises 18:27:42 0° 353° (N) 2,928 7.4 -15.5°
Reaches altitude 10° 18:30:14 10° 6° (N) 2,015 6.2 -15.7°
Maximum altitude 18:34:04 27° 65° (ENE) 1,206 4.4 -16.1°
Enters shadow 18:35:35 22° 97° (E) 1,362 4.4 -16.3°
